Location: Clarion
(42.7316°N, 93.7330°W)
Time: 08:36:47
(UTC+00:00)

OAO 3 Rocket - Pass Details

Date: 22 April 2026
Orbit: 612 x 660 km, 35.0° (Epoch: 16 May)

Event Time Altitude Azimuth Distance (km) Brightness Sun altitude
Rises 01:58:52 0° 256° (WSW) 2,886 7.3 -10.1°
Reaches altitude 10° 02:01:22 10° 246° (WSW) 1,988 6.2 -10.5°
Maximum altitude 02:05:26 31° 184° (S) 1,099 4.1 -11.2°
Enters shadow 02:08:25 16° 130° (SE) 1,641 4.6 -11.7°
